K1QL Weather Reports


time (UTC)temp
F
wind
direction
speed
knots
gust
knots
rain 1hr
in
rain 24hr
in
rain mn
in
humidity
%
barometer
mb
20260503000336 49 56 0.9 0.9 0.00 0.08 0.08 93 1010.0
20260502235833 49 60 0.0 0.9 0.00 0.08 0.08 93 1010.2
20260502235330 49 29 0.0 0.9 0.00 0.08 0.08 93 1010.1
20260502234826 49 51 0.0 1.7 0.00 0.08 0.08 93 1010.1
20260502234323 49 66 1.7 1.7 0.00 0.08 0.08 93 1010.0
20260502233820 49 63 0.9 0.9 0.00 0.08 0.08 93 1010.3
20260502233316 50 89 0.0 0.9 0.00 0.08 0.08 93 1010.3
20260502232814 49 147 0.0 1.7 0.00 0.08 0.08 93 1009.9
20260502232310 49 60 0.0 0.9 0.00 0.08 0.08 92 1010.1
20260502231806 49 48 1.7 1.7 0.00 0.08 0.08 92 1010.1
20260502231304 50 55 0.0 0.0 0.00 0.08 0.08 92 1010.1
20260502230802 49 65 0.9 0.9 0.00 0.08 0.08 92 1010.3
20260502230300 49 124 0.0 0.9 0.00 0.08 0.08 92 1010.1
20260502225756 50 138 0.9 1.7 0.00 0.08 0.08 92 1010.3
20260502225253 49 39 0.0 1.7 0.00 0.08 0.08 92 1010.2
20260502224749 49 89 0.0 0.0 0.00 0.08 0.08 92 1010.0
20260502224246 49 116 0.9 1.7 0.00 0.08 0.08 91 1010.0
20260502223744 49 126 0.0 0.0 0.00 0.08 0.08 91 1009.9
20260502223242 49 131 1.7 3.5 0.00 0.08 0.08 91 1009.8
20260502222739 49 123 3.5 4.3 0.00 0.08 0.08 91 1010.0
20260502222236 49 133 3.5 3.5 0.00 0.08 0.08 91 1010.0
20260502221731 49 141 0.0 2.6 0.00 0.08 0.08 90 1010.2
20260502221228 49 122 0.0 1.7 0.05 0.08 0.08 90 1010.1
20260502220725 49 84 1.7 2.6 0.07 0.08 0.08 90 1010.0
20260502220221 49 95 1.7 1.7 0.05 0.07 0.07 89 1010.2
20260502215718 49 345 0.0 0.0 0.05 0.07 0.07 89 1010.3
20260502215215 50 345 0.0 0.9 0.07 0.07 0.07 88 1010.4
20260502214713 50 312 0.0 0.0 0.05 0.06 0.06 87 1010.3
20260502214210 50 54 0.0 0.9 0.05 0.06 0.06 86 1010.2
20260502213707 50 34 0.0 0.9 0.05 0.05 0.05 85 1010.2
20260502213204 50 66 0.0 0.9 0.05 0.05 0.05 83 1010.2
20260502212702 51 309 0.9 1.7 0.02 0.04 0.04 82 1010.1
20260502212200 51 343 1.7 1.7 0.00 0.04 0.04 80 1010.1
20260502211656 51 312 1.7 1.7 0.00 0.04 0.04 78 1010.1
20260502211153 52 280 1.7 4.3 0.00 0.04 0.04 75 1010.3
20260502210650 53 331 1.7 3.5 0.00 0.04 0.04 73 1010.1
20260502210147 54 274 3.5 4.3 0.00 0.04 0.04 69 1010.1
20260502205644 54 228 0.0 2.6 0.00 0.04 0.04 68 1009.9
20260502205141 54 228 3.5 5.2 0.00 0.04 0.04 67 1009.8
20260502204638 54 183 1.7 7.0 0.00 0.04 0.04 69 1009.9
20260502204135 54 174 1.7 11.3 0.00 0.04 0.04 68 1009.7
20260502203632 54 215 4.3 5.2 0.00 0.04 0.04 67 1009.9
20260502203131 54 182 2.6 4.3 0.00 0.04 0.04 66 1009.8
20260502202631 54 179 2.6 11.3 0.00 0.04 0.04 65 1009.9
20260502202129 55 199 4.3 5.2 0.00 0.04 0.04 64 1009.8
20260502201625 55 188 2.6 7.8 0.00 0.04 0.04 64 1009.9
20260502201122 55 152 3.5 11.3 0.00 0.04 0.04 63 1009.8
20260502200618 55 181 5.2 7.0 0.00 0.04 0.04 61 1009.9
20260502200115 56 187 3.5 7.8 0.00 0.04 0.04 60 1009.9
20260502195614 55 79 1.7 7.0 0.00 0.04 0.04 61 1009.9
20260502195109 55 166 1.7 3.5 0.00 0.04 0.04 63 1009.9
20260502194606 55 159 4.3 6.1 0.00 0.04 0.04 62 1010.0
20260502194102 54 157 2.6 6.1 0.00 0.04 0.04 60 1010.2
20260502193600 54 173 1.7 4.3 0.00 0.04 0.04 61 1010.1
20260502193056 54 146 3.5 5.2 0.00 0.04 0.04 62 1010.4
20260502192552 55 193 4.3 13.9 0.00 0.04 0.04 60 1010.5
20260502192050 55 168 3.5 5.2 0.00 0.04 0.04 59 1010.4
20260502191546 56 185 4.3 8.7 0.00 0.04 0.04 59 1010.6
20260502191044 55 232 1.7 7.8 0.00 0.04 0.04 61 1010.8
20260502190542 55 184 3.5 5.2 0.00 0.04 0.04 59 1010.8
20260502190038 54 157 1.7 8.7 0.00 0.04 0.04 58 1010.8
20260502185533 54 227 3.5 3.5 0.00 0.04 0.04 60 1010.6
20260502185030 53 147 2.6 12.2 0.00 0.04 0.04 60 1010.7
20260502184526 54 177 3.5 7.0 0.00 0.04 0.04 62 1010.7
20260502184022 53 105 1.7 3.5 0.00 0.04 0.04 66 1010.8
20260502183519 53 152 4.3 8.7 0.00 0.04 0.04 63 1010.8
20260502183015 53 151 10.4 12.2 0.00 0.04 0.04 65 1010.9
20260502182509 52 134 1.7 6.1 0.00 0.04 0.04 70 1010.8
20260502182006 52 166 2.6 3.5 0.00 0.04 0.04 75 1010.9
20260502181504 51 204 4.3 5.2 0.00 0.04 0.04 74 1011.0
20260502181002 51 178 2.6 4.3 0.00 0.04 0.04 76 1011.0
20260502180459 51 166 3.5 7.0 0.00 0.04 0.04 76 1010.9
20260502170418 52 295 0.0 0.9 0.05 0.02 0.02 79 1011.3
20260502163901 53 102 0.0 1.7 0.00 0.01 0.01 67 1011.3
20260502163358 53 225 1.7 2.6 0.00 0.01 0.01 64 1011.3
20260502162856 53 268 2.6 2.6 0.00 0.01 0.01 63 1011.2
20260502162352 54 217 1.7 2.6 0.00 0.01 0.01 61 1011.5
20260502161849 54 190 1.7 3.5 0.00 0.01 0.01 61 1011.1
20260502161345 55 268 2.6 3.5 0.00 0.01 0.01 60 1011.4
20260502160843 55 222 1.7 1.7 0.00 0.01 0.01 62 1011.3
20260502160341 55 83 1.7 2.6 0.00 0.01 0.01 64 1011.3
20260502152311 55 263 0.9 1.7 0.00 0.01 0.01 72 1011.5
20260502151808 54 138 1.7 3.5 0.00 0.01 0.01 72 1011.5
20260502151305 53 181 0.9 6.1 0.00 0.01 0.01 71 1011.7
20260502150803 53 139 1.7 3.5 0.00 0.01 0.01 73 1011.8
20260502150259 54 69 2.6 4.3 0.00 0.01 0.01 73 1012.0
20260502130647 49 170 1.7 1.7 0.00 0.01 0.01 86 1012.5
20260502130145 49 105 0.0 0.0 0.00 0.01 0.01 86 1012.6
20260502123630 50 295 1.7 2.6 0.00 0.00 0.00 78 1012.7
20260502123127 50 349 0.9 1.7 0.00 0.00 0.00 78 1012.7
20260502122623 50 306 2.6 3.5 0.00 0.00 0.00 78 1012.9
20260502122120 50 212 3.5 4.3 0.00 0.00 0.00 77 1012.6
20260502121619 50 210 1.7 2.6 0.00 0.00 0.00 77 1012.6
20260502121115 50 281 2.6 3.5 0.00 0.00 0.00 77 1012.6
20260502120612 50 260 2.6 2.6 0.00 0.00 0.00 77 1012.5
20260502120109 50 277 1.7 1.7 0.00 0.00 0.00 77 1012.2
20260502115607 50 58 0.9 2.6 0.00 0.00 0.00 77 1012.1
20260502115102 50 265 0.9 1.7 0.00 0.00 0.00 77 1012.3
20260502114559 50 220 0.9 1.7 0.00 0.00 0.00 76 1012.1
20260502114056 51 283 0.0 1.7 0.00 0.00 0.00 75 1011.8
20260502113553 52 135 3.5 3.5 0.00 0.00 0.00 73 1011.8
20260502113052 50 117 0.9 1.7 0.00 0.00 0.00 78 1011.6
20260502112549 49 84 0.0 1.7 0.00 0.00 0.00 80 1011.6
20260502112047 49 158 1.7 1.7 0.00 0.00 0.00 79 1011.6
20260502111544 48 78 0.0 0.9 0.00 0.00 0.00 80 1011.7
20260502111041 48 126 0.0 1.7 0.00 0.00 0.00 80 1011.6
20260502110538 48 119 0.0 1.7 0.00 0.00 0.00 80 1011.9
20260502110036 48 224 0.0 0.0 0.00 0.00 0.00 80 1011.8
20260502105533 48 124 0.0 0.9 0.00 0.00 0.00 80 1011.8
20260502105031 48 96 0.9 0.9 0.00 0.00 0.00 81 1011.8
20260502104527 48 135 1.7 1.7 0.00 0.00 0.00 82 1011.6
20260502104025 48 67 0.0 1.7 0.00 0.00 0.00 83 1011.6
20260502103523 48 280 0.0 0.9 0.00 0.00 0.00 82 1012.0
20260502103021 47 119 1.7 2.6 0.00 0.00 0.00 82 1011.5
20260502102517 47 142 0.0 1.7 0.00 0.00 0.00 83 1011.7
20260502102014 47 119 0.9 1.7 0.00 0.00 0.00 85 1011.5
20260502101512 47 147 0.0 0.0 0.00 0.00 0.00 87 1011.8
20260502101010 47 175 0.0 0.0 0.00 0.00 0.00 85 1011.3
20260502100508 47 122 1.7 1.7 0.00 0.00 0.00 85 1011.0
20260502091443 46 129 0.9 1.7 0.00 0.00 0.00 87 1011.2
20260502090940 46 62 1.7 1.7 0.00 0.00 0.00 87 1011.3
20260502090437 46 129 1.7 1.7 0.00 0.00 0.00 87 1011.3
20260502071331 48 55 0.0 1.7 0.00 0.00 0.00 74 1011.3
20260502070829 48 46 1.7 2.6 0.00 0.00 0.00 74 1011.3
20260502070327 48 57 1.7 1.7 0.00 0.00 0.00 72 1011.4
20260502065826 49 77 1.7 1.7 0.00 0.00 0.00 71 1011.2
20260502065323 49 61 1.7 1.7 0.00 0.00 0.00 71 1011.2
20260502064821 49 26 0.0 2.6 0.00 0.00 0.00 71 1011.3
20260502064319 48 98 0.0 1.7 0.00 0.00 0.00 72 1011.2
20260502063816 48 160 0.0 1.7 0.00 0.00 0.00 73 1011.5
20260502063314 48 22 0.0 0.0 0.00 0.00 0.00 75 1011.7
20260502062810 47 339 0.0 1.7 0.00 0.00 0.00 75 1011.6
20260502062308 47 60 0.0 0.9 0.00 0.00 0.00 75 1011.6
20260502061807 46 89 0.0 1.7 0.00 0.00 0.00 75 1011.4
20260502061304 46 50 1.7 1.7 0.00 0.00 0.00 77 1011.4
20260502060759 46 70 0.9 1.7 0.00 0.00 0.00 77 1011.5
20260502060255 46 157 0.0 0.0 0.00 0.00 0.00 77 1011.5
20260502055753 46 49 0.9 1.7 0.00 0.00 0.00 76 1011.5
20260502055250 46 79 0.9 1.7 0.00 0.00 0.00 76 1011.4
20260502054749 46 69 0.0 0.0 0.00 0.00 0.00 76 1011.6
20260502054247 46 69 0.9 1.7 0.00 0.00 0.00 75 1011.5
20260502053744 46 72 0.9 0.9 0.00 0.00 0.00 74 1011.5
20260502053241 45 89 1.7 1.7 0.00 0.00 0.00 75 1011.6
20260502052739 45 82 1.7 1.7 0.00 0.00 0.00 75 1011.7
20260502052237 45 89 0.0 0.9 0.00 0.00 0.00 74 1011.6
20260502051735 46 97 0.9 1.7 0.00 0.00 0.00 74 1011.5
20260502051233 46 65 0.0 0.9 0.00 0.00 0.00 73 1011.7
20260502050728 46 74 0.0 1.7 0.00 0.00 0.00 72 1011.7
20260502050225 46 123 0.0 1.7 0.00 0.00 0.00 71 1011.8
20260502045722 46 91 1.7 1.7 0.00 0.00 0.00 70 1011.5
20260502045219 46 123 1.7 1.7 0.00 0.00 0.00 69 1011.6
20260502044716 47 113 0.9 1.7 0.00 0.00 0.00 70 1011.7
20260502044212 47 89 0.9 1.7 0.00 0.00 0.00 69 1011.5
20260502043710 47 118 1.7 1.7 0.00 0.00 0.00 68 1011.7
20260502043207 47 103 0.9 1.7 0.00 0.00 0.00 68 1011.7
20260502042706 47 95 0.9 0.9 0.00 0.00 0.00 68 1011.8
20260502042204 48 110 0.0 1.7 0.00 0.00 0.00 66 1011.7
20260502041701 48 103 0.0 1.7 0.00 0.00 0.00 65 1011.6
20260502041158 48 60 0.9 1.7 0.00 0.00 0.00 65 1011.7
20260502040655 48 112 0.9 1.7 0.00 0.00 0.00 63 1011.7
20260502040153 49 57 0.0 1.7 0.00 0.00 0.00 62 1011.7
20260502035649 49 109 0.9 0.9 0.00 0.00 0.00 62 1011.7
20260502035145 49 92 0.9 1.7 0.00 0.00 0.00 60 1011.8
20260502034643 49 70 1.7 1.7 0.00 0.00 0.00 61 1011.7
20260502034141 50 77 1.7 1.7 0.00 0.00 0.00 60 1011.7
20260502033639 50 65 0.0 1.7 0.00 0.00 0.00 59 1011.8
20260502033137 50 55 1.7 1.7 0.00 0.00 0.00 59 1011.6
20260502032632 49 48 0.9 1.7 0.00 0.00 0.00 59 1011.9
20260502032129 49 63 1.7 1.7 0.00 0.00 0.00 60 1011.9
20260502031627 48 84 0.9 1.7 0.00 0.00 0.00 60 1011.8
20260502031124 49 61 0.0 1.7 0.00 0.00 0.00 59 1011.6
20260502030623 49 66 0.9 1.7 0.00 0.00 0.00 59 1011.7
20260502030121 49 106 0.9 1.7 0.00 0.00 0.00 60 1011.9
20260502025618 49 70 1.7 1.7 0.00 0.00 0.00 59 1011.6
20260502025116 48 49 0.0 1.7 0.00 0.00 0.00 60 1011.6
20260502024614 48 49 1.7 1.7 0.00 0.00 0.00 59 1011.6
20260502024111 48 78 0.9 1.7 0.00 0.00 0.00 61 1011.5
20260502023609 47 86 1.7 1.7 0.00 0.00 0.00 63 1011.7
20260502023106 46 341 0.0 1.7 0.00 0.00 0.00 64 1011.7
20260502022603 46 77 1.7 1.7 0.00 0.00 0.00 66 1011.8
20260502022100 46 78 0.0 1.7 0.00 0.00 0.00 66 1011.7
20260502021557 45 52 1.7 2.6 0.00 0.00 0.00 72 1011.7
20260502021054 44 99 1.7 1.7 0.00 0.00 0.00 73 1011.9
20260502020552 44 63 0.9 1.7 0.00 0.00 0.00 73 1011.5
20260502020048 45 71 1.7 1.7 0.00 0.00 0.00 72 1011.6
20260502015546 45 230 0.0 0.9 0.00 0.00 0.00 71 1011.4
20260502015042 45 89 0.0 0.0 0.00 0.00 0.00 71 1011.4
20260502014539 45 113 0.0 0.0 0.00 0.00 0.00 69 1011.5
20260502014037 45 113 0.0 0.0 0.00 0.00 0.00 69 1011.1
20260502013532 45 89 0.0 0.0 0.00 0.00 0.00 68 1011.2
20260502013028 46 103 0.0 0.9 0.00 0.00 0.00 67 1011.4
20260502012526 46 84 0.9 0.9 0.00 0.00 0.00 65 1011.3
20260502012023 46 77 0.0 1.7 0.00 0.00 0.00 64 1011.4
20260502011520 47 103 0.0 0.9 0.00 0.00 0.00 61 1011.2
20260502011016 47 76 0.0 0.0 0.00 0.00 0.00 60 1011.2
20260502010514 48 76 0.0 0.0 0.00 0.00 0.00 59 1010.9
20260502010010 48 57 0.0 0.9 0.00 0.00 0.00 58 1011.0
20260502005508 48 69 0.0 0.0 0.00 0.00 0.00 58 1011.0
20260502005005 49 43 0.9 1.7 0.00 0.00 0.00 57 1010.9
20260502004500 49 44 0.0 0.9 0.00 0.00 0.00 56 1010.9
20260502003958 50 76 0.0 0.0 0.00 0.00 0.00 55 1010.8
20260502003455 50 61 0.9 1.7 0.00 0.00 0.00 56 1010.7
20260502002951 51 75 0.0 0.9 0.00 0.00 0.00 53 1010.7
20260502002449 51 79 0.0 0.9 0.00 0.00 0.00 51 1010.5
20260502001946 52 82 0.0 0.9 0.00 0.00 0.00 49 1010.5
20260502001443 52 49 0.0 0.9 0.00 0.00 0.00 49 1010.5
20260502000941 53 89 0.0 1.7 0.00 0.00 0.00 46 1010.3